Weather History for Hobbs, NM

Change the Weather History Date:

Monday, February 18, 2013

  Actual Average Record
Temperature  
Mean Temperature 48 °F -  
Max Temperature 62 °F 60 °F 77 °F (2011)
Min Temperature 33 °F 33 °F 26 °F (2006)
Degree Days  
Heating Degree Days 18    
Moisture  
Dew Point 11 °F    
Average Humidity 27    
Maximum Humidity 48    
Minimum Humidity 11    
Precipitation  
Precipitation 0.00 in - - ()
Sea Level Pressure  
Sea Level Pressure 29.98 in    
Wind  
Wind Speed 9 mph (NE)    
Max Wind Speed 29 mph    
Max Gust Speed 38 mph    
Visibility 10 miles    
Events      
Averages and records for this station are not official NWS values.
T = Trace of Precipitation, MM = Missing Value Source: NWS Daily Summary

Daily Weather History Graph

Daily Weather History Graph

Search for Another Location

Airport:

Trip Planner

Search our weather history database for the weather conditions in past years. The results will help you decide how hot, cold, wet, or windy it might be!

Date:

Astronomy

Feb. 18, 2013 Rise Set
Actual Time 6:32 AM MST 5:41 PM MST
Civil Twilight 6:07 AM MST 6:06 PM MST
Nautical Twilight 5:38 AM MST 6:35 PM MST
Astronomical Twilight 5:10 AM MST 7:03 PM MST
Moon 11:38 AM MST (2/18) 1:05 AM MST (2/18)
Length of Visible Light 11h 58m
Length of Day
11h 08m
First Quarter, 59% of the Moon is Illuminated
Feb 18
First Quarter
Feb 25
Full
Mar 4
Last Quarter
Mar 11
New
Mar 19
First Quarter

Hourly Weather History & Observations

Time (MST) Temp. Windchill Dew Point Humidity Pressure Visibility Wind Dir Wind Speed Gust Speed Precip Events Conditions
12:15 AM 42.8 °F 37.0 °F 15.8 °F 34% 29.80 in 10.0 mi South 10.4 mph - N/A   Clear
12:35 AM 41.0 °F 37.1 °F 17.6 °F 39% 29.80 in 10.0 mi South 5.8 mph - N/A   Clear
12:55 AM 39.2 °F - 17.6 °F 42% 29.81 in 10.0 mi Calm Calm - N/A   Clear
1:15 AM 41.0 °F - 17.6 °F 39% 29.81 in 10.0 mi Calm Calm - N/A   Clear
1:35 AM 39.2 °F 33.0 °F 17.6 °F 42% 29.80 in 10.0 mi South 9.2 mph - N/A   Clear
1:55 AM 39.2 °F 33.0 °F 17.6 °F 42% 29.80 in 10.0 mi South 9.2 mph - N/A   Clear
2:15 AM 35.6 °F 29.2 °F 15.8 °F 44% 29.80 in 10.0 mi South 8.1 mph - N/A   Clear
2:35 AM 35.6 °F - 15.8 °F 44% 29.80 in 10.0 mi Calm Calm - N/A   Clear
2:55 AM 33.8 °F 26.4 °F 15.8 °F 48% 29.80 in 10.0 mi SW 9.2 mph - N/A   Clear
3:15 AM 44.6 °F 37.8 °F 8.6 °F 23% 29.80 in 10.0 mi SW 15.0 mph - N/A   Clear
3:35 AM 48.2 °F - 8.6 °F 20% 29.81 in 10.0 mi SW 15.0 mph - N/A   Clear
3:55 AM 48.2 °F - 8.6 °F 20% 29.81 in 10.0 mi SW 16.1 mph - N/A   Clear
5:55 AM 44.6 °F 38.4 °F 5.0 °F 20% - - WSW 12.7 mph - N/A   Clear
6:45 AM 44.6 °F 38.1 °F 5.0 °F 20% - - WSW 13.8 mph - N/A   Clear
7:45 AM 48.2 °F - 5.0 °F 17% - - WSW 12.7 mph - N/A   Clear
8:50 AM 55.4 °F - 6.8 °F 14% - - WSW 12.7 mph 21.9 mph N/A   Clear
9:45 AM 59.0 °F - 10.4 °F 15% - - West 27.6 mph 34.5 mph N/A   Clear
11:50 AM 62.6 °F - 6.8 °F 11% 30.00 in 10.0 mi WNW 28.8 mph 38.0 mph N/A   Clear
12:50 PM 62.6 °F - 8.6 °F 12% 30.00 in 10.0 mi WNW 20.7 mph 28.8 mph N/A   Clear
1:50 PM 62.6 °F - 6.8 °F 11% 29.99 in 10.0 mi WNW 16.1 mph 23.0 mph N/A   Clear
2:50 PM 60.8 °F - 10.4 °F 14% 29.99 in 10.0 mi North 15.0 mph 19.6 mph N/A   Clear
3:50 PM 59.0 °F - 10.4 °F 15% 30.00 in 10.0 mi NNE 13.8 mph 18.4 mph N/A   Clear
4:50 PM 55.4 °F - 10.4 °F 17% 30.01 in 10.0 mi NNE 11.5 mph - N/A   Clear
5:15 PM 53.6 °F - 12.2 °F 19% 30.02 in 10.0 mi NNE 9.2 mph - N/A   Clear
5:35 PM 51.8 °F - 12.2 °F 21% 30.03 in 10.0 mi NE 9.2 mph - N/A   Clear
5:45 PM 51.8 °F - 10.4 °F 19% 30.03 in 10.0 mi NNE 9.2 mph - N/A   Clear
5:55 PM 50.0 °F - 10.4 °F 20% 30.04 in 10.0 mi NE 3.5 mph - N/A   Clear
6:15 PM 48.2 °F - 10.4 °F 22% 30.04 in 10.0 mi NE 8.1 mph - N/A   Clear
6:35 PM 46.4 °F 42.4 °F 10.4 °F 23% 30.06 in 10.0 mi NE 8.1 mph - N/A   Clear
6:55 PM 46.4 °F 45.2 °F 10.4 °F 23% 30.06 in 10.0 mi ENE 3.5 mph - N/A   Clear
7:15 PM 44.6 °F 39.7 °F 10.4 °F 25% 30.07 in 10.0 mi NE 9.2 mph - N/A   Clear
7:35 PM 44.6 °F 39.7 °F 10.4 °F 25% 30.07 in 10.0 mi ENE 9.2 mph - N/A   Clear
7:55 PM 44.6 °F 39.2 °F 10.4 °F 25% 30.08 in 10.0 mi ENE 10.4 mph - N/A   Clear
8:15 PM 44.6 °F 38.8 °F 10.4 °F 25% 30.08 in 10.0 mi ENE 11.5 mph - N/A   Clear
8:35 PM 41.0 °F 35.8 °F 10.4 °F 29% 30.09 in 10.0 mi ENE 8.1 mph - N/A   Clear
8:55 PM 42.8 °F 37.0 °F 10.4 °F 27% 30.09 in 10.0 mi ENE 10.4 mph - N/A   Clear
9:15 PM 42.8 °F 38.6 °F 12.2 °F 29% 30.10 in 10.0 mi East 6.9 mph - N/A   Clear
9:35 PM 41.0 °F 35.8 °F 12.2 °F 31% 30.11 in 10.0 mi ENE 8.1 mph - N/A   Clear
9:55 PM 41.0 °F 35.8 °F 12.2 °F 31% 30.10 in 10.0 mi ENE 8.1 mph - N/A   Clear
10:15 PM 41.0 °F 35.2 °F 12.2 °F 31% 30.10 in 10.0 mi ENE 9.2 mph - N/A   Clear
10:35 PM 41.0 °F 35.2 °F 12.2 °F 31% 30.11 in 10.0 mi East 9.2 mph - N/A   Clear
10:55 PM 39.2 °F 33.6 °F 12.2 °F 33% 30.11 in 10.0 mi ENE 8.1 mph - N/A   Clear
11:15 PM 39.2 °F 35.9 °F 14.0 °F 36% 30.11 in 10.0 mi East 4.6 mph - N/A   Clear
11:35 PM 39.2 °F - 14.0 °F 36% 30.12 in 10.0 mi Calm Calm - N/A   Clear
11:55 PM 37.4 °F - 14.0 °F 38% 30.12 in 10.0 mi Calm Calm - N/A   Clear